TimeCST,TemperatureF,Dew PointF,Humidity,Sea Level PressureIn,VisibilityMPH,Wind Direction,Wind SpeedMPH,Gust SpeedMPH,PrecipitationIn,Events,Conditions,WindDirDegrees,DateUTC
12:13 AM,42.8,35.1,74,29.94,7.0,SSW,9.2,16.1,N/A,,Overcast,200,2012-11-06 06:13:00
12:32 AM,42.4,35.1,75,29.94,7.0,SSW,10.4,-,N/A,,Overcast,200,2012-11-06 06:32:00
12:52 AM,42.8,34.9,74,29.93,7.0,South,10.4,17.3,N/A,,Overcast,190,2012-11-06 06:52:00
1:12 AM,42.8,35.2,75,29.92,7.0,SSW,12.7,18.4,N/A,,Overcast,200,2012-11-06 07:12:00
1:32 AM,42.4,35.6,77,29.91,7.0,SSW,12.7,18.4,N/A,Rain,Light Rain,200,2012-11-06 07:32:00
1:52 AM,41.5,36.7,83,29.91,5.0,SSW,12.7,18.4,N/A,Rain,Light Rain,200,2012-11-06 07:52:00
2:12 AM,41.5,36.9,83,29.90,5.0,SSW,10.4,17.3,N/A,Rain,Light Rain,200,2012-11-06 08:12:00
2:32 AM,41.2,36.9,85,29.89,5.0,SSW,8.1,17.3,0.01,Rain,Light Rain,200,2012-11-06 08:32:00
2:52 AM,41.0,37.2,86,29.88,4.0,SSW,12.7,17.3,0.02,Rain,Light Rain,210,2012-11-06 08:52:00
3:12 AM,40.5,36.9,87,29.86,4.0,SSW,10.4,19.6,0.01,Rain,Rain,200,2012-11-06 09:12:00
3:32 AM,40.5,36.7,86,29.85,5.0,South,10.4,17.3,0.02,Rain,Light Rain,190,2012-11-06 09:32:00
3:52 AM,40.3,36.7,87,29.83,5.0,South,15.0,19.6,0.03,Rain,Light Rain,190,2012-11-06 09:52:00
4:12 AM,40.3,36.7,87,29.82,5.0,South,11.5,19.6,0.01,Rain,Light Rain,180,2012-11-06 10:12:00
4:32 AM,40.5,37.0,88,29.81,5.0,South,11.5,16.1,0.01,Rain,Rain,190,2012-11-06 10:32:00
4:52 AM,40.5,37.0,88,29.80,5.0,South,12.7,16.1,0.01,,Overcast,190,2012-11-06 10:52:00
5:12 AM,40.8,37.4,88,29.79,7.0,SSW,11.5,18.4,N/A,,Overcast,200,2012-11-06 11:12:00
5:32 AM,41.0,37.8,88,29.78,5.0,SSW,9.2,17.3,0.01,Rain,Light Rain,200,2012-11-06 11:32:00
5:52 AM,41.0,37.9,89,29.78,4.0,SSW,13.8,-,0.02,Rain,Rain,210,2012-11-06 11:52:00
6:12 AM,41.2,37.9,88,29.78,5.0,SSW,16.1,20.7,N/A,Rain,Light Rain,210,2012-11-06 12:12:00
6:32 AM,41.4,38.3,89,29.77,5.0,SW,16.1,-,0.01,,Drizzle,220,2012-11-06 12:32:00
6:52 AM,41.4,38.3,89,29.77,3.0,SW,15.0,-,0.01,,Overcast,220,2012-11-06 12:52:00
7:12 AM,41.0,38.5,91,29.77,3.0,SW,16.1,-,N/A,,Overcast,220,2012-11-06 13:12:00
7:32 AM,41.0,38.3,90,29.77,3.0,SW,10.4,-,N/A,,Overcast,220,2012-11-06 13:32:00
7:52 AM,41.2,38.7,91,29.77,5.0,SW,12.7,-,N/A,,Overcast,230,2012-11-06 13:52:00
8:12 AM,41.9,38.7,88,29.78,5.0,SW,9.2,-,N/A,,Overcast,230,2012-11-06 14:12:00
8:33 AM,41.9,38.8,89,29.77,2.0,West,12.7,16.1,N/A,,Overcast,260,2012-11-06 14:33:00
8:52 AM,41.9,38.7,88,29.78,4.0,West,11.5,18.4,N/A,,Overcast,280,2012-11-06 14:52:00
9:12 AM,42.6,38.7,86,29.78,10.0,West,12.7,17.3,N/A,,Overcast,280,2012-11-06 15:12:00
9:32 AM,43.5,38.1,81,29.78,10.0,WNW,15.0,-,N/A,,Overcast,290,2012-11-06 15:32:00
9:53 AM,43.2,38.1,82,29.78,10.0,WNW,12.7,-,N/A,,Overcast,290,2012-11-06 15:53:00
10:12 AM,43.3,36.3,76,29.78,10.0,NW,11.5,20.7,N/A,,Overcast,310,2012-11-06 16:12:00
10:32 AM,43.0,37.0,80,29.79,10.0,WNW,15.0,18.4,N/A,,Overcast,290,2012-11-06 16:32:00
10:53 AM,42.8,36.5,78,29.79,10.0,WNW,12.7,20.7,N/A,,Overcast,290,2012-11-06 16:53:00
11:12 AM,42.4,35.6,77,29.80,10.0,WNW,17.3,-,N/A,,Overcast,290,2012-11-06 17:12:00
11:32 AM,42.8,36.0,77,29.79,10.0,WNW,16.1,-,N/A,,Overcast,290,2012-11-06 17:32:00
11:53 AM,43.5,35.8,74,29.79,10.0,NW,12.7,19.6,N/A,,Overcast,320,2012-11-06 17:53:00
12:12 PM,44.8,35.8,71,29.78,10.0,NW,12.7,-,N/A,,Overcast,310,2012-11-06 18:12:00
12:32 PM,44.8,34.7,68,29.78,10.0,NW,15.0,-,N/A,,Overcast,320,2012-11-06 18:32:00
12:53 PM,45.1,35.1,68,29.78,10.0,NW,13.8,-,N/A,,Overcast,320,2012-11-06 18:53:00
1:12 PM,44.4,34.9,69,29.79,10.0,NW,11.5,17.3,N/A,,Overcast,310,2012-11-06 19:12:00
1:32 PM,44.4,35.2,70,29.79,10.0,WNW,11.5,20.7,N/A,,Overcast,300,2012-11-06 19:32:00
1:53 PM,43.3,35.8,75,29.79,7.0,WNW,13.8,-,N/A,,Overcast,290,2012-11-06 19:53:00
2:12 PM,42.3,37.6,83,29.80,5.0,WNW,12.7,-,N/A,,Light Drizzle,290,2012-11-06 20:12:00
2:32 PM,42.3,37.6,83,29.80,10.0,WNW,9.2,-,N/A,,Overcast,290,2012-11-06 20:32:00
2:52 PM,42.8,37.4,81,29.80,10.0,West,9.2,-,N/A,,Overcast,270,2012-11-06 20:52:00
3:12 PM,42.3,37.2,82,29.81,10.0,WNW,13.8,-,N/A,Rain,Rain,290,2012-11-06 21:12:00
3:32 PM,41.9,36.9,82,29.82,10.0,WNW,11.5,-,N/A,,Light Drizzle,300,2012-11-06 21:32:00
3:52 PM,41.5,37.2,85,29.82,10.0,WNW,8.1,-,N/A,,Light Drizzle,290,2012-11-06 21:52:00
4:12 PM,41.4,37.4,86,29.82,10.0,WNW,5.8,-,N/A,,Drizzle,290,2012-11-06 22:12:00
4:32 PM,41.5,37.4,85,29.83,7.0,WNW,13.8,18.4,N/A,Rain,Rain,290,2012-11-06 22:32:00
4:52 PM,41.4,36.9,84,29.83,10.0,NW,8.1,-,N/A,Rain,Light Rain,320,2012-11-06 22:52:00
5:12 PM,40.5,36.1,85,29.83,5.0,NW,13.8,19.6,0.01,Rain,Heavy Rain,310,2012-11-06 23:12:00
5:33 PM,40.5,35.2,82,29.84,7.0,NW,15.0,23.0,0.01,,Drizzle,310,2012-11-06 23:33:00
5:52 PM,40.3,35.6,83,29.84,10.0,NW,15.0,-,0.01,Rain,Light Rain,320,2012-11-06 23:52:00
6:12 PM,40.5,35.6,83,29.85,10.0,NW,13.8,-,N/A,,Overcast,320,2012-11-07 00:12:00
6:32 PM,40.5,36.0,84,29.86,7.0,NW,13.8,-,N/A,Rain,Heavy Rain,320,2012-11-07 00:32:00
6:52 PM,40.5,36.0,84,29.86,10.0,NW,15.0,20.7,N/A,,Overcast,320,2012-11-07 00:52:00
7:13 PM,40.1,35.6,84,29.87,10.0,NNW,8.1,-,N/A,,Overcast,330,2012-11-07 01:13:00
7:32 PM,40.3,35.6,83,29.88,10.0,NNW,10.4,-,N/A,,Overcast,330,2012-11-07 01:32:00
7:52 PM,40.3,34.7,80,29.88,10.0,NNW,13.8,18.4,N/A,,Overcast,330,2012-11-07 01:52:00
8:13 PM,40.1,33.8,78,29.89,10.0,NNW,13.8,-,N/A,,Overcast,330,2012-11-07 02:13:00
8:32 PM,40.1,33.4,77,29.89,10.0,NNW,12.7,-,N/A,,Overcast,330,2012-11-07 02:32:00
8:52 PM,40.1,33.3,77,29.90,10.0,NNW,12.7,-,N/A,,Overcast,340,2012-11-07 02:52:00
9:13 PM,39.7,33.3,78,29.90,10.0,NNW,10.4,-,N/A,,Overcast,330,2012-11-07 03:13:00
9:32 PM,39.6,33.1,78,29.91,10.0,NNW,11.5,-,N/A,,Overcast,330,2012-11-07 03:32:00
9:52 PM,39.4,33.1,78,29.92,10.0,NW,9.2,-,N/A,,Overcast,320,2012-11-07 03:52:00
10:13 PM,39.6,33.1,78,29.92,10.0,NNW,11.5,-,N/A,,Overcast,330,2012-11-07 04:13:00
10:32 PM,39.4,33.1,78,29.93,10.0,NNW,11.5,-,N/A,,Overcast,330,2012-11-07 04:32:00
10:52 PM,39.4,33.1,78,29.93,10.0,NNW,9.2,-,N/A,,Overcast,330,2012-11-07 04:52:00
11:13 PM,39.2,33.3,79,29.94,10.0,NNW,9.2,-,N/A,,Overcast,330,2012-11-07 05:13:00
11:32 PM,39.2,33.4,80,29.95,10.0,NNW,9.2,-,N/A,,Overcast,330,2012-11-07 05:32:00
11:52 PM,39.2,33.4,80,29.96,10.0,NNW,8.1,-,N/A,,Overcast,330,2012-11-07 05:52:00